| time (UTC) | temp F | wind direction | speed MPH | gust MPH | rain 1hr in | rain 24hr in | rain mn in | humidity % | barometer mb |
| 20260506102403 | 77 | 128 | 1.0 | 4.0 | 0.00 | 0.00 | 0.00 | 94 | 1005.7 |
| 20260506101902 | 77 | 128 | 1.0 | 2.0 | 0.00 | 0.00 | 0.00 | 94 | 1005.7 |
| 20260506101403 | 77 | 128 | 1.0 | 2.0 | 0.00 | 0.00 | 0.00 | 94 | 1005.6 |
| 20260506100901 | 77 | 128 | 1.0 | 3.0 | 0.00 | 0.00 | 0.00 | 94 | 1005.5 |
| 20260506100404 | 77 | 128 | 1.0 | 3.0 | 0.00 | 0.00 | 0.00 | 94 | 1005.5 |
| 20260506100400 | 77 | 128 | 1.0 | 3.0 | 0.00 | 0.00 | 0.00 | 94 | 1005.6 |
| 20260506095401 | 77 | 128 | 1.0 | 3.0 | 0.00 | 0.00 | 0.00 | 94 | 1005.6 |
| 20260506094854 | 77 | 128 | 1.0 | 3.0 | 0.00 | 0.00 | 0.00 | 94 | 1005.6 |
| 20260506094351 | 77 | 128 | 1.0 | 3.0 | 0.00 | 0.00 | 0.00 | 94 | 1005.4 |
| 20260506093845 | 77 | 128 | 1.0 | 4.0 | 0.00 | 0.00 | 0.00 | 94 | 1005.5 |
| 20260506093345 | 77 | 128 | 1.0 | 4.0 | 0.00 | 0.00 | 0.00 | 94 | 1005.5 |
| 20260506093340 | 77 | 128 | 1.0 | 3.0 | 0.00 | 0.00 | 0.00 | 94 | 1005.5 |
| 20260506092338 | 77 | 128 | 1.0 | 3.0 | 0.00 | 0.00 | 0.00 | 94 | 1005.6 |
| 20260506091838 | 77 | 128 | 1.0 | 3.0 | 0.00 | 0.00 | 0.00 | 94 | 1005.6 |
| 20260506091801 | 77 | 128 | 1.0 | 3.0 | 0.00 | 0.00 | 0.00 | 94 | 1005.7 |
| 20260506091405 | 77 | 128 | 0.0 | 3.0 | 0.00 | 0.00 | 0.00 | 94 | 1005.6 |
| 20260506090231 | 77 | 128 | 1.0 | 3.0 | 0.00 | 0.00 | 0.00 | 94 | 1005.6 |
| 20260506085731 | 78 | 128 | 1.0 | 3.0 | 0.00 | 0.00 | 0.00 | 94 | 1005.4 |
| 20260506085211 | 78 | 128 | 1.0 | 3.0 | 0.00 | 0.00 | 0.00 | 93 | 1005.2 |
| 20260506084714 | 78 | 129 | 1.0 | 3.0 | 0.00 | 0.00 | 0.00 | 93 | 1005.6 |
| 20260506084710 | 78 | 129 | 1.0 | 3.0 | 0.00 | 0.00 | 0.00 | 93 | 1005.5 |
| 20260506083709 | 78 | 128 | 1.0 | 4.0 | 0.00 | 0.00 | 0.00 | 93 | 1005.5 |
| 20260506083209 | 78 | 128 | 1.0 | 4.0 | 0.00 | 0.00 | 0.00 | 93 | 1005.4 |
| 20260506082704 | 78 | 126 | 1.0 | 4.0 | 0.00 | 0.00 | 0.00 | 93 | 1005.5 |
| 20260506082200 | 78 | 126 | 1.0 | 5.0 | 0.00 | 0.00 | 0.00 | 93 | 1005.4 |
| 20260506081703 | 78 | 121 | 1.0 | 3.0 | 0.00 | 0.00 | 0.00 | 93 | 1005.5 |
| 20260506081659 | 78 | 121 | 1.0 | 5.0 | 0.00 | 0.00 | 0.00 | 93 | 1005.5 |
| 20260506080657 | 78 | 121 | 1.0 | 3.0 | 0.00 | 0.00 | 0.00 | 92 | 1005.6 |
| 20260506080156 | 78 | 121 | 1.0 | 5.0 | 0.00 | 0.00 | 0.00 | 92 | 1005.7 |
| 20260506073129 | 78 | 115 | 1.0 | 4.0 | 0.00 | 0.00 | 0.00 | 92 | 1005.8 |
| 20260506072621 | 78 | 111 | 1.0 | 4.0 | 0.00 | 0.00 | 0.00 | 92 | 1005.9 |
| 20260506072115 | 78 | 109 | 2.0 | 4.0 | 0.00 | 0.00 | 0.00 | 92 | 1005.9 |
| 20260506071609 | 78 | 152 | 2.0 | 4.0 | 0.00 | 0.00 | 0.00 | 92 | 1006.0 |
| 20260506071107 | 78 | 153 | 2.0 | 5.0 | 0.00 | 0.00 | 0.00 | 92 | 1006.0 |
| 20260506070610 | 78 | 111 | 2.0 | 5.0 | 0.00 | 0.00 | 0.00 | 92 | 1006.2 |
| 20260506070109 | 78 | 107 | 2.0 | 5.0 | 0.00 | 0.00 | 0.00 | 92 | 1006.1 |
| 20260506062053 | 78 | 165 | 2.0 | 5.0 | 0.00 | 0.00 | 0.00 | 92 | 1006.5 |
| 20260506061709 | 78 | 165 | 2.0 | 7.0 | 0.00 | 0.00 | 0.00 | 92 | 1006.7 |
| 20260506061051 | 78 | 165 | 1.0 | 3.0 | 0.00 | 0.00 | 0.00 | 92 | 1006.6 |
| 20260506051024 | 79 | 205 | 3.0 | 11.0 | 0.00 | 0.00 | 0.00 | 91 | 1006.4 |
| 20260506050525 | 79 | 151 | 4.0 | 11.0 | 0.00 | 0.00 | 0.00 | 91 | 1006.3 |
| 20260506045017 | 79 | 178 | 3.0 | 11.0 | 0.00 | 0.00 | 0.00 | 91 | 1006.1 |
| 20260506044517 | 79 | 119 | 3.0 | 11.0 | 0.00 | 0.00 | 0.00 | 91 | 1006.2 |
| 20260506044024 | 79 | 164 | 3.0 | 8.0 | 0.00 | 0.00 | 0.00 | 91 | 1006.1 |
| 20260506044018 | 79 | 163 | 3.0 | 10.0 | 0.00 | 0.00 | 0.00 | 91 | 1006.2 |
| 20260506043013 | 79 | 140 | 2.0 | 6.0 | 0.00 | 0.00 | 0.00 | 91 | 1006.0 |
| 20260506042515 | 79 | 146 | 3.0 | 9.0 | 0.00 | 0.00 | 0.00 | 91 | 1005.9 |
| 20260506042511 | 79 | 173 | 3.0 | 9.0 | 0.00 | 0.00 | 0.00 | 91 | 1005.9 |
| 20260506042129 | 79 | 135 | 2.0 | 7.0 | 0.00 | 0.00 | 0.00 | 91 | 1005.9 |
| 20260506041511 | 79 | 124 | 2.0 | 7.0 | 0.00 | 0.00 | 0.00 | 91 | 1005.8 |
| 20260506041005 | 79 | 142 | 2.0 | 5.0 | 0.00 | 0.00 | 0.00 | 91 | 1006.0 |
| 20260506040002 | 79 | 156 | 3.0 | 7.0 | 0.00 | 0.00 | 0.00 | 91 | 1005.8 |
| 20260506035504 | 79 | 184 | 3.0 | 9.0 | 0.00 | 0.00 | 0.00 | 91 | 1005.8 |
| 20260506035003 | 79 | 142 | 3.0 | 9.0 | 0.00 | 0.00 | 0.00 | 91 | 1005.9 |
| 20260506034503 | 79 | 179 | 3.0 | 8.0 | 0.00 | 0.00 | 0.00 | 91 | 1005.7 |
| 20260506034003 | 79 | 158 | 3.0 | 7.0 | 0.00 | 0.00 | 0.00 | 91 | 1005.6 |
| 20260506033458 | 79 | 140 | 3.0 | 7.0 | 0.00 | 0.00 | 0.00 | 91 | 1005.7 |
| 20260506032958 | 79 | 147 | 3.0 | 7.0 | 0.00 | 0.00 | 0.00 | 91 | 1005.7 |
| 20260506032501 | 79 | 150 | 3.0 | 9.0 | 0.00 | 0.00 | 0.00 | 91 | 1005.6 |
| 20260506032000 | 79 | 158 | 3.0 | 9.0 | 0.00 | 0.00 | 0.00 | 91 | 1005.6 |
| 20260506031458 | 79 | 166 | 3.0 | 7.0 | 0.00 | 0.00 | 0.00 | 91 | 1005.7 |
| 20260506030959 | 79 | 136 | 3.0 | 9.0 | 0.00 | 0.00 | 0.00 | 91 | 1005.7 |
| 20260506030446 | 79 | 147 | 3.0 | 10.0 | 0.00 | 0.00 | 0.00 | 91 | 1005.6 |
| 20260506025947 | 79 | 171 | 3.0 | 10.0 | 0.00 | 0.00 | 0.00 | 91 | 1005.6 |
| 20260506025444 | 79 | 151 | 3.0 | 7.0 | 0.00 | 0.00 | 0.00 | 91 | 1005.6 |
| 20260506024943 | 79 | 140 | 3.0 | 7.0 | 0.00 | 0.00 | 0.00 | 91 | 1005.4 |
| 20260506024439 | 79 | 126 | 3.0 | 8.0 | 0.00 | 0.00 | 0.00 | 91 | 1005.2 |
| 20260506023944 | 79 | 168 | 3.0 | 10.0 | 0.00 | 0.00 | 0.00 | 91 | 1005.2 |
| 20260506023939 | 79 | 81 | 3.0 | 8.0 | 0.00 | 0.00 | 0.00 | 91 | 1005.3 |
| 20260506022936 | 79 | 172 | 3.0 | 10.0 | 0.00 | 0.00 | 0.00 | 91 | 1005.0 |
| 20260506022441 | 79 | 169 | 3.0 | 12.0 | 0.00 | 0.00 | 0.00 | 90 | 1004.9 |
| 20260506022437 | 79 | 169 | 2.0 | 12.0 | 0.00 | 0.00 | 0.00 | 90 | 1005.0 |
| 20260506021436 | 79 | 136 | 2.0 | 6.0 | 0.00 | 0.00 | 0.00 | 90 | 1004.9 |
| 20260506021430 | 79 | 177 | 2.0 | 9.0 | 0.00 | 0.00 | 0.00 | 90 | 1004.9 |
| 20260506021044 | 79 | 119 | 3.0 | 9.0 | 0.00 | 0.00 | 0.00 | 90 | 1004.9 |
| 20260506015929 | 79 | 161 | 3.0 | 11.0 | 0.00 | 0.00 | 0.00 | 90 | 1004.7 |
| 20260506015429 | 79 | 171 | 3.0 | 11.0 | 0.00 | 0.00 | 0.00 | 90 | 1004.8 |
| 20260506014928 | 79 | 134 | 3.0 | 9.0 | 0.00 | 0.00 | 0.00 | 90 | 1004.6 |
| 20260506014429 | 79 | 161 | 4.0 | 11.0 | 0.00 | 0.00 | 0.00 | 90 | 1004.6 |
| 20260506013922 | 79 | 161 | 4.0 | 11.0 | 0.00 | 0.00 | 0.00 | 89 | 1004.5 |
| 20260506013428 | 79 | 173 | 5.0 | 12.0 | 0.00 | 0.00 | 0.00 | 89 | 1004.5 |
| 20260506013423 | 79 | 202 | 4.0 | 11.0 | 0.00 | 0.00 | 0.00 | 89 | 1004.5 |
| 20260506013042 | 80 | 116 | 4.0 | 11.0 | 0.00 | 0.00 | 0.00 | 89 | 1004.4 |
| 20260506012423 | 79 | 182 | 5.0 | 12.0 | 0.00 | 0.00 | 0.00 | 89 | 1004.5 |
| 20260506011425 | 80 | 169 | 4.0 | 13.0 | 0.00 | 0.00 | 0.00 | 89 | 1004.3 |
| 20260506011418 | 80 | 182 | 5.0 | 13.0 | 0.00 | 0.00 | 0.00 | 89 | 1004.4 |
| 20260506010418 | 80 | 151 | 3.0 | 9.0 | 0.00 | 0.00 | 0.00 | 89 | 1004.2 |
| 20260506005924 | 80 | 123 | 3.0 | 9.0 | 0.00 | 0.00 | 0.00 | 89 | 1004.1 |
| 20260506005919 | 80 | 167 | 3.0 | 7.0 | 0.00 | 0.00 | 0.00 | 89 | 1004.2 |
| 20260506004912 | 80 | 174 | 4.0 | 10.0 | 0.00 | 0.00 | 0.00 | 88 | 1004.2 |
| 20260506004419 | 80 | 202 | 4.0 | 11.0 | 0.00 | 0.00 | 0.00 | 88 | 1003.9 |
| 20260506004413 | 80 | 175 | 3.0 | 10.0 | 0.00 | 0.00 | 0.00 | 88 | 1004.1 |
| 20260506004028 | 80 | 155 | 3.0 | 10.0 | 0.00 | 0.00 | 0.00 | 88 | 1003.8 |
| 20260506003906 | 80 | 171 | 4.0 | 11.0 | 0.00 | 0.00 | 0.00 | 88 | 1003.8 |
| 20260506002406 | 81 | 134 | 4.0 | 10.0 | 0.00 | 0.00 | 0.00 | 87 | 1003.9 |
| 20260506001901 | 81 | 78 | 4.0 | 13.0 | 0.00 | 0.00 | 0.00 | 87 | 1003.9 |
| 20260506001401 | 81 | 159 | 3.0 | 13.0 | 0.00 | 0.00 | 0.00 | 87 | 1003.8 |
| 20260506000902 | 81 | 168 | 3.0 | 9.0 | 0.00 | 0.00 | 0.00 | 87 | 1003.8 |
| 20260506000402 | 81 | 123 | 4.0 | 14.0 | 0.00 | 0.00 | 0.00 | 87 | 1003.7 |
| 20260505235906 | 81 | 119 | 5.0 | 13.0 | 0.00 | 0.00 | 0.00 | 87 | 1003.7 |
| 20260505235902 | 81 | 123 | 5.0 | 14.0 | 0.00 | 0.00 | 0.00 | 87 | 1003.6 |
| 20260505234859 | 81 | 143 | 5.0 | 13.0 | 0.00 | 0.00 | 0.00 | 87 | 1003.7 |
| 20260505234401 | 81 | 171 | 5.0 | 12.0 | 0.00 | 0.00 | 0.00 | 87 | 1003.7 |
| 20260505233902 | 81 | 53 | 5.0 | 14.0 | 0.00 | 0.00 | 0.00 | 87 | 1003.6 |
| 20260505233400 | 81 | 130 | 5.0 | 14.0 | 0.00 | 0.00 | 0.00 | 86 | 1003.7 |
| 20260505232859 | 82 | 108 | 4.0 | 13.0 | 0.00 | 0.00 | 0.00 | 86 | 1003.8 |
| 20260505232400 | 82 | 180 | 3.0 | 10.0 | 0.00 | 0.00 | 0.00 | 86 | 1003.8 |
| 20260505232355 | 82 | 163 | 3.0 | 8.0 | 0.00 | 0.00 | 0.00 | 86 | 1003.8 |
| 20260505231355 | 82 | 161 | 4.0 | 10.0 | 0.00 | 0.00 | 0.00 | 87 | 1003.7 |
| 20260505230853 | 81 | 167 | 4.0 | 10.0 | 0.00 | 0.00 | 0.00 | 87 | 1003.8 |
| 20260505230355 | 82 | 157 | 3.0 | 9.0 | 0.00 | 0.00 | 0.00 | 86 | 1003.8 |
| 20260505225855 | 81 | 162 | 4.0 | 13.0 | 0.00 | 0.00 | 0.00 | 86 | 1003.7 |
| 20260505225850 | 81 | 179 | 4.0 | 10.0 | 0.00 | 0.00 | 0.00 | 87 | 1003.9 |
| 20260505224851 | 81 | 93 | 4.0 | 13.0 | 0.00 | 0.00 | 0.00 | 86 | 1004.0 |
| 20260505224349 | 82 | 153 | 4.0 | 12.0 | 0.00 | 0.00 | 0.00 | 86 | 1004.1 |
| 20260505223851 | 82 | 197 | 4.0 | 12.0 | 0.00 | 0.00 | 0.00 | 86 | 1004.2 |
| 20260505223351 | 82 | 153 | 4.0 | 10.0 | 0.00 | 0.00 | 0.00 | 86 | 1004.3 |
| 20260505222849 | 82 | 158 | 4.0 | 10.0 | 0.00 | 0.00 | 0.00 | 86 | 1004.2 |
| 20260505222344 | 82 | 109 | 4.0 | 10.0 | 0.00 | 0.00 | 0.00 | 85 | 1004.3 |
| 20260505221846 | 83 | 146 | 4.0 | 9.0 | 0.00 | 0.00 | 0.00 | 85 | 1004.2 |
| 20260505221346 | 83 | 86 | 4.0 | 11.0 | 0.00 | 0.00 | 0.00 | 85 | 1004.3 |
| 20260505220848 | 83 | 128 | 4.0 | 11.0 | 0.00 | 0.00 | 0.00 | 85 | 1004.3 |
| 20260505220843 | 83 | 163 | 4.0 | 11.0 | 0.00 | 0.00 | 0.00 | 85 | 1004.2 |
| 20260505220502 | 83 | 192 | 4.0 | 11.0 | 0.00 | 0.00 | 0.00 | 84 | 1004.3 |
| 20260505215344 | 83 | 146 | 3.0 | 13.0 | 0.00 | 0.00 | 0.00 | 84 | 1004.3 |
| 20260505214844 | 83 | 111 | 4.0 | 13.0 | 0.00 | 0.00 | 0.00 | 84 | 1004.3 |
| 20260505214346 | 83 | 84 | 4.0 | 13.0 | 0.00 | 0.00 | 0.00 | 84 | 1004.3 |
| 20260505214340 | 83 | 105 | 4.0 | 12.0 | 0.00 | 0.00 | 0.00 | 84 | 1004.3 |
| 20260505213338 | 83 | 148 | 4.0 | 12.0 | 0.00 | 0.00 | 0.00 | 84 | 1004.3 |
| 20260505212839 | 83 | 166 | 4.0 | 11.0 | 0.00 | 0.00 | 0.00 | 84 | 1004.5 |
| 20260505212337 | 83 | 144 | 4.0 | 13.0 | 0.00 | 0.00 | 0.00 | 84 | 1004.5 |
| 20260505211834 | 84 | 171 | 3.0 | 13.0 | 0.00 | 0.00 | 0.00 | 83 | 1004.6 |
| 20260505211335 | 84 | 108 | 3.0 | 11.0 | 0.00 | 0.00 | 0.00 | 83 | 1004.6 |
| 20260505210831 | 83 | 181 | 4.0 | 12.0 | 0.00 | 0.00 | 0.00 | 84 | 1004.7 |
| 20260505210827 | 84 | 171 | 3.0 | 12.0 | 0.00 | 0.00 | 0.00 | 84 | 1004.7 |
| 20260505205825 | 83 | 74 | 4.0 | 9.0 | 0.00 | 0.00 | 0.00 | 84 | 1004.8 |
| 20260505205327 | 83 | 76 | 4.0 | 10.0 | 0.00 | 0.00 | 0.00 | 84 | 1004.8 |
| 20260505204826 | 84 | 129 | 4.0 | 11.0 | 0.00 | 0.00 | 0.00 | 83 | 1004.8 |
| 20260505204326 | 84 | 100 | 4.0 | 11.0 | 0.00 | 0.00 | 0.00 | 83 | 1004.8 |
| 20260505203827 | 84 | 88 | 4.0 | 13.0 | 0.00 | 0.00 | 0.00 | 83 | 1004.8 |
| 20260505203324 | 85 | 98 | 3.0 | 13.0 | 0.00 | 0.00 | 0.00 | 82 | 1005.0 |
| 20260505202825 | 85 | 101 | 3.0 | 11.0 | 0.00 | 0.00 | 0.00 | 83 | 1005.1 |
| 20260505202325 | 84 | 78 | 4.0 | 11.0 | 0.00 | 0.00 | 0.00 | 83 | 1005.0 |
| 20260505201825 | 84 | 61 | 4.0 | 9.0 | 0.00 | 0.00 | 0.00 | 83 | 1005.1 |
| 20260505201324 | 84 | 84 | 3.0 | 9.0 | 0.00 | 0.00 | 0.00 | 83 | 1005.3 |
| 20260505200817 | 85 | 157 | 3.0 | 10.0 | 0.00 | 0.00 | 0.00 | 82 | 1005.3 |
| 20260505200317 | 85 | 121 | 4.0 | 12.0 | 0.00 | 0.00 | 0.00 | 81 | 1005.4 |
| 20260505195817 | 85 | 103 | 4.0 | 12.0 | 0.00 | 0.00 | 0.00 | 79 | 1005.4 |
| 20260505195316 | 85 | 120 | 4.0 | 12.0 | 0.00 | 0.00 | 0.00 | 79 | 1005.5 |
| 20260505194820 | 84 | 150 | 5.0 | 13.0 | 0.00 | 0.00 | 0.00 | 80 | 1005.5 |
| 20260505194814 | 85 | 199 | 4.0 | 13.0 | 0.00 | 0.00 | 0.00 | 79 | 1005.4 |
| 20260505193813 | 84 | 167 | 5.0 | 11.0 | 0.00 | 0.00 | 0.00 | 80 | 1005.5 |
| 20260505193315 | 84 | 184 | 5.0 | 13.0 | 0.00 | 0.00 | 0.00 | 81 | 1005.6 |
| 20260505192814 | 84 | 171 | 5.0 | 17.0 | 0.00 | 0.00 | 0.00 | 81 | 1005.8 |
| 20260505192313 | 84 | 80 | 5.0 | 17.0 | 0.00 | 0.00 | 0.00 | 81 | 1005.8 |
| 20260505191815 | 84 | 190 | 5.0 | 13.0 | 0.00 | 0.00 | 0.00 | 81 | 1005.7 |
| 20260505191311 | 84 | 229 | 5.0 | 13.0 | 0.00 | 0.00 | 0.00 | 82 | 1005.8 |
| 20260505190811 | 83 | 173 | 5.0 | 13.0 | 0.00 | 0.00 | 0.00 | 82 | 1005.8 |
| 20260505190313 | 83 | 214 | 4.0 | 12.0 | 0.00 | 0.00 | 0.00 | 82 | 1005.9 |
| 20260505185814 | 83 | 152 | 4.0 | 12.0 | 0.00 | 0.00 | 0.00 | 82 | 1006.0 |
| 20260505185808 | 83 | 115 | 4.0 | 12.0 | 0.00 | 0.00 | 0.00 | 82 | 1005.9 |
| 20260505185429 | 83 | 115 | 4.0 | 11.0 | 0.00 | 0.00 | 0.00 | 82 | 1006.1 |
| 20260505184315 | 84 | 144 | 5.0 | 13.0 | 0.00 | 0.00 | 0.00 | 81 | 1006.3 |
| 20260505184310 | 84 | 146 | 4.0 | 11.0 | 0.00 | 0.00 | 0.00 | 82 | 1006.2 |
| 20260505183808 | 84 | 156 | 5.0 | 13.0 | 0.00 | 0.00 | 0.00 | 82 | 1006.2 |
| 20260505182806 | 83 | 194 | 6.0 | 16.0 | 0.00 | 0.00 | 0.00 | 82 | 1006.3 |
| 20260505182307 | 83 | 160 | 6.0 | 16.0 | 0.00 | 0.00 | 0.00 | 81 | 1006.3 |
| 20260505181811 | 83 | 205 | 4.0 | 13.0 | 0.00 | 0.00 | 0.00 | 82 | 1006.3 |
| 20260505181806 | 83 | 196 | 4.0 | 13.0 | 0.00 | 0.00 | 0.00 | 82 | 1006.3 |
| 20260505180802 | 83 | 182 | 4.0 | 9.0 | 0.00 | 0.00 | 0.00 | 83 | 1006.3 |
| 20260505180309 | 82 | 182 | 4.0 | 12.0 | 0.00 | 0.00 | 0.00 | 84 | 1006.4 |
| 20260505180303 | 83 | 202 | 4.0 | 11.0 | 0.00 | 0.00 | 0.00 | 84 | 1006.4 |
| 20260505175259 | 82 | 217 | 4.0 | 12.0 | 0.00 | 0.00 | 0.00 | 85 | 1006.5 |
| 20260505174801 | 82 | 156 | 3.0 | 11.0 | 0.00 | 0.00 | 0.00 | 85 | 1006.5 |
| 20260505174300 | 81 | 165 | 5.0 | 11.0 | 0.00 | 0.00 | 0.00 | 85 | 1006.5 |
| 20260505173804 | 80 | 150 | 3.0 | 9.0 | 0.00 | 0.00 | 0.00 | 88 | 1006.6 |
| 20260505173759 | 82 | 136 | 5.0 | 12.0 | 0.00 | 0.00 | 0.00 | 85 | 1006.5 |
| 20260505173258 | 81 | 187 | 4.0 | 12.0 | 0.00 | 0.00 | 0.00 | 86 | 1006.5 |
| 20260505172301 | 80 | 191 | 2.0 | 9.0 | 0.00 | 0.00 | 0.00 | 88 | 1006.8 |
| 20260505171759 | 80 | 207 | 2.0 | 5.0 | 0.00 | 0.00 | 0.00 | 88 | 1006.8 |
| 20260505171259 | 80 | 165 | 2.0 | 5.0 | 0.00 | 0.00 | 0.00 | 88 | 1006.8 |
| 20260505170758 | 80 | 123 | 3.0 | 7.0 | 0.00 | 0.00 | 0.00 | 88 | 1006.8 |
| 20260505170258 | 80 | 197 | 3.0 | 7.0 | 0.00 | 0.00 | 0.00 | 88 | 1006.8 |
| 20260505165800 | 80 | 194 | 2.0 | 6.0 | 0.00 | 0.00 | 0.00 | 90 | 1006.8 |
| 20260505165245 | 80 | 213 | 2.0 | 7.0 | 0.00 | 0.00 | 0.00 | 90 | 1006.8 |
| 20260505164747 | 80 | 173 | 3.0 | 9.0 | 0.00 | 0.00 | 0.00 | 89 | 1006.8 |
| 20260505164244 | 80 | 207 | 3.0 | 9.0 | 0.00 | 0.00 | 0.00 | 90 | 1006.9 |
| 20260505163743 | 79 | 200 | 3.0 | 9.0 | 0.00 | 0.00 | 0.00 | 91 | 1006.9 |
| 20260505163247 | 78 | 197 | 4.0 | 7.0 | 0.00 | 0.00 | 0.00 | 93 | 1006.8 |
| 20260505163242 | 79 | 202 | 3.0 | 9.0 | 0.00 | 0.00 | 0.00 | 91 | 1006.9 |
| 20260505162846 | 79 | 213 | 3.0 | 7.0 | 0.00 | 0.00 | 0.00 | 93 | 1006.8 |
| 20260505161740 | 78 | 207 | 3.0 | 6.0 | 0.00 | 0.00 | 0.00 | 93 | 1006.9 |
| 20260505161238 | 78 | 221 | 2.0 | 6.0 | 0.00 | 0.00 | 0.00 | 93 | 1006.9 |
| 20260505160739 | 78 | 193 | 2.0 | 6.0 | 0.00 | 0.00 | 0.00 | 93 | 1006.9 |
| 20260505160231 | 77 | 208 | 2.0 | 7.0 | 0.00 | 0.00 | 0.00 | 93 | 1006.8 |
| 20260505153220 | 77 | 205 | 3.0 | 10.0 | 0.00 | 0.00 | 0.00 | 92 | 1006.8 |
| 20260505153215 | 78 | 229 | 3.0 | 10.0 | 0.00 | 0.00 | 0.00 | 92 | 1006.7 |
| 20260505152212 | 77 | 186 | 2.0 | 5.0 | 0.00 | 0.00 | 0.00 | 92 | 1006.7 |
| 20260505151713 | 77 | 197 | 3.0 | 6.0 | 0.00 | 0.00 | 0.00 | 92 | 1006.7 |
| 20260505151211 | 77 | 214 | 3.0 | 9.0 | 0.00 | 0.00 | 0.00 | 92 | 1006.7 |
| 20260505150710 | 77 | 194 | 3.0 | 10.0 | 0.00 | 0.00 | 0.00 | 92 | 1006.8 |
| 20260505150208 | 77 | 165 | 2.0 | 10.0 | 0.00 | 0.00 | 0.00 | 92 | 1006.8 |
| 20260505140628 | 76 | 190 | 2.0 | 6.0 | 0.00 | 0.00 | 0.00 | 93 | 1006.7 |
| 20260505140126 | 76 | 209 | 3.0 | 7.0 | 0.00 | 0.00 | 0.00 | 92 | 1006.7 |
| 20260505140121 | 76 | 194 | 3.0 | 7.0 | 0.00 | 0.00 | 0.00 | 93 | 1006.6 |
| 20260505130112 | 75 | 147 | 2.0 | 7.0 | 0.00 | 0.00 | 0.00 | 94 | 1006.4 |
| 20260505124553 | 75 | 178 | 2.0 | 9.0 | 0.00 | 0.00 | 0.00 | 94 | 1006.2 |
| 20260505124546 | 74 | 184 | 2.0 | 4.0 | 0.00 | 0.00 | 0.00 | 94 | 1006.1 |
| 20260505123540 | 74 | 161 | 2.0 | 7.0 | 0.00 | 0.00 | 0.00 | 94 | 1006.1 |
| 20260505123037 | 74 | 166 | 2.0 | 7.0 | 0.00 | 0.00 | 0.00 | 94 | 1006.0 |
| 20260505122525 | 74 | 133 | 2.0 | 5.0 | 0.00 | 0.00 | 0.00 | 94 | 1006.0 |
| 20260505122022 | 74 | 166 | 2.0 | 5.0 | 0.00 | 0.00 | 0.00 | 94 | 1006.0 |
| 20260505121507 | 74 | 124 | 2.0 | 5.0 | 0.00 | 0.00 | 0.00 | 94 | 1005.9 |
| 20260505121010 | 74 | 137 | 2.0 | 4.0 | 0.00 | 0.00 | 0.00 | 94 | 1005.9 |
| 20260505121004 | 74 | 123 | 2.0 | 4.0 | 0.00 | 0.00 | 0.00 | 94 | 1005.9 |
| 20260505120003 | 74 | 163 | 2.0 | 5.0 | 0.00 | 0.00 | 0.00 | 94 | 1005.9 |
| 20260505115458 | 74 | 163 | 2.0 | 6.0 | 0.00 | 0.00 | 0.00 | 94 | 1005.8 |
| 20260505114954 | 73 | 128 | 2.0 | 6.0 | 0.00 | 0.00 | 0.00 | 94 | 1005.9 |
| 20260505114454 | 73 | 204 | 2.0 | 6.0 | 0.00 | 0.00 | 0.00 | 94 | 1006.0 |
| 20260505113950 | 73 | 140 | 2.0 | 4.0 | 0.00 | 0.00 | 0.00 | 94 | 1006.0 |
| 20260505113446 | 73 | 134 | 2.0 | 4.0 | 0.00 | 0.00 | 0.00 | 94 | 1006.0 |
| 20260505112946 | 73 | 126 | 2.0 | 4.0 | 0.00 | 0.00 | 0.00 | 94 | 1005.9 |
| 20260505112442 | 73 | 123 | 2.0 | 5.0 | 0.00 | 0.00 | 0.00 | 94 | 1005.9 |
| 20260505112039 | 73 | 136 | 2.0 | 4.0 | 0.00 | 0.00 | 0.00 | 94 | 1005.7 |
| 20260505111931 | 73 | 138 | 2.0 | 5.0 | 0.00 | 0.00 | 0.00 | 94 | 1005.8 |
| 20260505111924 | 73 | 132 | 2.0 | 5.0 | 0.00 | 0.00 | 0.00 | 94 | 1005.7 |
| 20260505110417 | 73 | 167 | 1.0 | 5.0 | 0.00 | 0.00 | 0.00 | 94 | 1005.8 |